www.pogodaiklimat.ru

Погода и климат >> Архив погоды >> Мексика >> Choix


ПОГОДА в Choix

  • Прогноз погоды в Choix
  • Монитор погоды в Choix
  • Климат города

АРХИВ ПОГОДЫ в Choix

Время (UTC), дата Ветер
(напр.,м/с)
 
Видим.   Явления Облачность Т
(С)
Тd
(С)
f
(%)
Тe
(С)
Тes
(С)
Комфортность P
(гПа)
Po
(гПа)
Тmin
(С)
Tmax
(С)
R
(мм)
R24
(мм)
S
(см)
00 11.08 штиль 0 30 км ясно +38.7 +27.2 52 +56 +61 опасность
перегрева
1006.4 980.0 +22.8 +39.2
03 11.08 штиль 0 2000 м ясно +31.6 +27.7 80 +51 +51 опасность
перегрева
1006.0 980.0
12 11.08 штиль 0 2000 м ясно +24.7 +22.1 85 +32 +32 очень
душно
1006.1 979.7 +21.2 +39.2
15 11.08 штиль 0 30 км ясно +29.9 +23.8 70 +41 +49 опасность
перегрева
1007.2 980.5
18 11.08 штиль 0 30 км ясно +37.3 +25.6 51 +51 +78 опасность
перегрева
1008.0 981.4 +23.5 +38.4
21 11.08 штиль 0 30 км ясно +39.0 +28.6 56 +61 +84 опасность
перегрева
1006.9 980.6
00 12.08 С 2 30 км слабая морось {дождь} 10/10 300 м
[Frnb]
+27.9 +24.8 83 +40 +40 очень
душно
1007.9 981.6 4
03 12.08 штиль 0 2000 м слабая морось {дождь} 10/10 600 м
[Frnb]
+24.2 +22.4 90 +32 +32 очень
душно
1011.0 984.7 59
12 12.08 штиль 0 10 км 10/10 600 м
[Frnb]
+24.1 +22.4 90 +31 +31 очень
душно
1011.4 984.4 +22.4 +40.2
15 12.08 штиль 0 30 км 10/10 600 м
[Frnb]
+24.4 +21.3 83 +31 +31 очень
душно
1012.7 985.6
18 12.08 Ю 1 30 км слабая морось 10/10 600 м
[Frnb]
+27.3 +21.9 72 +35 +35 очень
душно
1013.4 986.3 0.6
21 12.08 С 1 30 км 4/4 600 м
[Cu med, cong]
+33.2 +24.4 60 +46 +58 опасность
перегрева
1011.0 984.1
00 13.08 СВ 1 30 км 10/10 600 м
[Frnb]
+33.6 +23.6 56 +45 +45 опасность
перегрева
1010.3 983.7 +22.9 +34.8
03 13.08 З 1 2000 м 10/10 600 м
[Frnb]
+27.2 +19.8 64 +33 +33 очень
душно
1010.0 983.5
06 13.08 ЮЗ 1 2000 м 10/10 600 м
[Frnb]
+25.3 +18.4 66 +30 +30 душно 1011.9 985.3 +22.9 +34.8
09 13.08 СВ 1 2000 м 10/10 600 м
[Frnb]
+24.0 +16.5 63 +27 +27 жарко 1011.9 985.2
12 13.08 СВ 1 2000 м 10/10 600 м
[Frnb]
+23.4 +15.8 62 +28 +28 душно 1011.6 984.6 +23.2 +34.8
15 13.08 СВ 1 30 км 8/8 750 м
[Sc diur, vesp]
+25.4 +18.4 65 +30 +31 душно 1013.2 986.1
18 13.08 СВ 2 30 км 3/3 600 м
[Cu med, cong]
+33.2 +21.9 52 +42 +55 опасность
перегрева
1012.8 985.8 +22.9 +33.5
21 13.08 ЮЗ 1 30 км 3/3 600 м
[Cu med, cong]
+35.0 +22.8 49 +45 +59 опасность
перегрева
1010.7 984.0
00 14.08 ЮЗ 1 30 км 4/4 300 м
[Cu med, cong]
+36.2 +23.6 48 +47 +49 опасность
перегрева
1008.8 982.4 +22.9 +36.8
03 14.08 В 1 2000 м 8/8 600 м
[Cb calv]
+29.3 +19.8 57 +36 +36 очень
душно
1010.2 983.9
06 14.08 ЮЗ 1 2000 м 6/6 750 м
[Sc diur, vesp]
+26.7 +18.9 62 +32 +32 очень
душно
1011.6 985.2 +22.9 +36.8
09 14.08 штиль 0 10 км 4/0
[Cs]
+25.6 +18.9 66 +31 +31 очень
душно
1010.3 983.8
12 14.08 ЮЗ 1 10 км 4/0 1260 м
[Ac trans]
+24.9 +18.3 67 +29 +29 душно 1010.4 983.6 +24.7 +36.8
15 14.08 штиль 0 30 км 8/0 1260 м
[Ac und]
+25.7 +18.7 65 +31 +34 очень
душно
1011.6 984.7
18 14.08 СВ 1 30 км 5/5 600 м
[Cu med, cong]
+34.2 +24.9 58 +47 +59 опасность
перегрева
1011.3 984.5 +24.5 +34.5
21 14.08 З 1 30 км 6/6 600 м
[Cu med, cong]
+35.2 +25.3 57 +50 +58 опасность
перегрева
1008.8 982.2
00 15.08 штиль 0 30 км слабая морось 10/10 300 м
[Frnb]
+23.3 +20.3 83 +31 +31 очень
душно
1010.4 983.8 21
03 15.08 СВ 1 2000 м в посл. час морось 10/10 750 м
[Sc diur, vesp]
+23.3 +20.6 85 +31 +31 очень
душно
1009.9 983.3 4
06 15.08 штиль 0 2000 м в посл. час морось 10/10 600 м
[Sc diur, vesp]
+23.0 +20.4 85 +30 +30 очень
душно
1010.9 984.1 4
09 15.08 штиль 0 2000 м 8/8 750 м
[Sc]
+23.2 +20.5 85 +31 +31 очень
душно
1010.3 983.2
12 15.08 штиль 0 30 км 4/4 600 м
[St]
+23.1 +20.4 85 +30 +30 очень
душно
1010.9 983.7 +22.9 +35.6
15 15.08 штиль 0 30 км 8/8 600 м
[Cu med, cong]
+24.0 +20.6 81 +30 +31 очень
душно
1012.2 985.0
18 15.08 ЮЗ 1 30 км 4/4 600 м
[Cu med, cong]
+30.5 +22.1 61 +39 +53 опасность
солнечного
удара
1010.9 983.9 +22.4 +30.5
21 15.08 З 1 30 км 4/4 600 м
[Cu med, cong]
+35.4 +23.9 52 +47 +59 опасность
перегрева
1008.6 981.8
00 16.08 ЮЗ 1 30 км 5/5 300 м
[Cu med, cong]
+35.5 +23.5 50 +46 +48 опасность
перегрева
1006.8 980.4 +22.4 +36.7
03 16.08 штиль 0 2000 м 3/3 750 м
[Sc diur, vesp]
+29.0 +22.2 67 +38 +38 очень
душно
1007.9 981.6
06 16.08 Ю 1 2000 м 3/3 750 м
[Sc diur, vesp]
+26.8 +21.3 72 +34 +34 очень
душно
1009.0 982.7 +22.4 +36.7
12 16.08 штиль 0 2000 м 5/5 750 м
[Sc diur, vesp]
+25.4 +20.3 73 +31 +31 очень
душно
1009.9 983.1 +25.2 +36.7
15 16.08 штиль 0 30 км ясно +29.3 +23.2 70 +40 +47 очень
душно
1011.1 984.3
18 16.08 ЮЗ 1 30 км 1/1 600 м
[Cu med, cong]
+33.5 +26.9 68 +51 +71 опасность
перегрева
1009.9 983.1 +24.6 +33.5
21 16.08 СВ 3 30 км 4/4 600 м
[Cu med, cong]
+35.7 +27.0 61 +54 +62 опасность
перегрева
1008.1 981.7
00 17.08 ЮЗ 3 30 км 10/10 600 м
[Frnb]
+34.6 +27.1 65 +53 +53 опасность
перегрева
1006.8 980.6 +24.6 +37.7
03 17.08 СВ 2 2000 м {морось} 10/10 600 м
[Frnb]
+26.5 +21.6 74 +34 +34 очень
душно
1009.1 982.9 0.7
06 17.08 СВ 2 2000 м слабая морось 10/10 600 м
[Frnb]
+24.6 +20.3 77 +30 +30 очень
душно
1011.0 984.6 1
09 17.08 СВ 2 2000 м 10/10 600 м
[Frnb]
+24.4 +20.1 77 +30 +30 очень
душно
1011.1 984.5
12 17.08 ЮЗ 3 2000 м слабая морось 10/10 600 м
[Frnb]
+24.0 +19.7 77 +29 +29 душно 1011.8 984.9 0.8
15 17.08 СВ 1 30 км слабый дождь {морось} 10/10 600 м
[Frnb]
+24.2 +19.9 77 +30 +30 очень
душно
1012.6 985.5 3
18 17.08 СВ 1 30 км слабая морось 10/10 600 м
[Frnb]
+27.5 +20.3 65 +34 +34 очень
душно
1015.0 987.9 3
21 17.08 штиль 0 30 км 10/10 600 м
[Frnb]
+32.0 +26.4 72 +48 +48 опасность
перегрева
1011.8 985.2

 

Местоположение метеостанции Choix (Мексика): широта 26.73 долгота -108.20 высота над уровнем моря 238 м.

В архиве по умолчанию представлена погода в Choix за последнюю неделю. Архивные данные за месяц целиком и за предыдущие месяцы, начиная с января 2011 года, Вы можете получить, выбрав интересующий диапазон дат из раскрывающегося списка и нажав кнопку "Ввод!".

Внимание! Время в таблицах - всемирное. Для получения местного времени необходимо прибавить поправку, которая в Choix равна -6 ч.

Смотрите также архив погоды в соседних городах и на ближайших метеорологических станциях:

Погода в Ciudad Obregon (Мексика) (177 км)
Погода в Culiacan (Мексика) (229 км)
Погода в Temosachic (Мексика) (250 км)
Погода в Hidalgo del Parral (Мексика) (259 км)
Погода в Empalme (Мексика) (282 км)
Погода в Tepehuanes (Мексика) (292 км)
Погода в Guaymas Upper Air Site (Мексика) (296 км)
Погода в Chihuahua (Мексика) (303 км)
Погода в Chihuahua University (Мексика) (303 км)
Погода в Loreto (Мексика) (319 км)

Пояснения к столбцам:

Ветер - указаны скорость ветра в м/с - средняя за 10 мин, порывы в срок и между сроками (в фигурных скобках) и направление, откуда дует ветер: С - северный, СВ - северо-восточный, В - восточный, ЮВ - юго-восточный, Ю - южный, ЮЗ - юго-западный, З - западный, СЗ - северо-западный.
Видимость - горизонтальная дальность видимости в метрах или километрах. При видимости от 1 до 10 км при отсутствии осадков обычно наблюдается дымка, при ухудшении видимости до 1 км и менее - туман. В сухую погоду видимость может ухудшаться дымом, пылью или мглою.
Явления - указаны атмосферные явления, наблюдавшиеся в срок или в последний час перед сроком; фигурными скобками обозначены явления, наблюдавшиеся между сроками (за 1-3 часа до срока); квадратными скобками обозначены град или гололедные отложения с указанием их диаметра в мм.
Облачность - указаны через наклонную черту общая и нижняя облачность в баллах и высота нижней границы облаков в метрах; квадратными скобками обозначены формы облаков: Ci - перистые, Cs - перисто-слоистые, Cc - перисто-кучевые, Ac - высококучевые, As - высокослоистые, Sc - слоисто-кучевые, Ns - слоисто-дождевые, Cu - кучевые, Cb - кучево-дождевые. Подробнее классификацию облаков см. в Атласе облаков (PDF).
T - Температура воздуха - температура, измеренная на высоте 2 м над землей.
Td - Температура точки росы - температура, при понижении до которой содержащийся в воздухе водяной пар достигнет насыщения.
f - Относительная влажность воздуха - влажноcть воздуха, измеренная на высоте 2 м над землей.
Te - Эффективная температура - температура, которую ощущает одетый по сезону человек в тени. Характеристика душности погоды. При расчете учитывается влияние влажности воздуха и скорости ветра на теплоощущения человека.
Tes - Эффективная температура на солнце - температура, которую ощущает человек, с поправкой на солнечный нагрев. Характеристика знойности погоды. Зависит от высоты солнца над горизонтом, облачности и скорости ветра. Ночью, в пасмурную погоду, а также при ветре 12 м/с и более поправка равна нулю.
P - Атмосферное давление - приведенное к уровню моря атмосферное давление.
Po - Атмосферное давление - измеренное на уровне метеостанции атмосферное давление.
Tmin - Минимальная температура - минимум температуры воздуха на высоте 2 м над землей.
Tmax - Максимальная температура - максимум температуры воздуха на высоте 2 м над землей.
R - Количество осадков - Количество выпавших осадков за период времени, мм. При наведении курсора мыши на число - период времени, за который выпало указанное количество осадков.
R24 - Количество осадков - Количество выпавших осадков за 24 часа, мм.
S - Снежный покров - Высота снежного покрова, см. При наведении курсора мыши на число - состояние снежного покрова и степень покрытия местности в баллах.